Detroit Lakes, MN

4:27 AM CST on February 12, 2016 (GMT -0600)
Detroit Lakes

Weather History for KDTL - May, 2014

Change the Weather History Date:

Tuesday, May 6, 2014

  Actual Average Record
Temperature  
Mean Temperature 52 °F -  
Max Temperature 60 °F 65 °F 89 °F (1939)
Min Temperature 44 °F 35 °F 21 °F (1976)
Degree Days  
Heating Degree Days 13    
Growing Degree Days 2 (Base 50)    
Moisture  
Dew Point 35 °F    
Average Humidity 51    
Maximum Humidity 71    
Minimum Humidity 36    
Precipitation  
Precipitation 0.00 in - - ()
Sea Level Pressure  
Sea Level Pressure 29.87 in    
Wind  
Wind Speed 10 mph (SE)    
Max Wind Speed 20 mph    
Max Gust Speed 25 mph    
Visibility 10 miles    
Events      
Averages and records for this station are not official NWS values.
T = Trace of Precipitation, MM = Missing Value Source: NWS Daily Summary

Daily Weather History Graph

Daily Weather History Graph

Search for Another Location

Airport or City:

Trip Planner

Search our weather history database for the weather conditions in past years. The results will help you decide how hot, cold, wet, or windy it might be!

Date:

Astronomy

May. 06, 2014 Rise Set
Actual Time 6:00 AM CDT 8:40 PM CDT
Civil Twilight 5:26 AM CDT 9:15 PM CDT
Nautical Twilight 4:42 AM CDT 9:58 PM CDT
Astronomical Twilight 3:52 AM CDT 10:50 PM CDT
Moon 12:22 PM CDT (5/6) 1:56 AM CDT (5/6)
Length of Visible Light 15h 48m
Length of Day
14h 39m
Waxing Crescent, 46% of the Moon is Illuminated
May 6
Waxing Crescent
May 6
First Quarter
May 14
Full
May 21
Last Quarter
May 28
New

Hourly Weather History & Observations

Time (CDT) Temp. Windchill Dew Point Humidity Pressure Visibility Wind Dir Wind Speed Gust Speed Precip Events Conditions
12:14 AM 48.2 °F - 35.6 °F 62% 29.95 in 10.0 mi East 5.8 mph - N/A   Clear
12:35 AM 48.2 °F - 35.6 °F 62% 29.95 in 10.0 mi East 5.8 mph - N/A   Clear
12:54 AM 48.2 °F - 35.6 °F 62% 29.95 in 10.0 mi East 5.8 mph - N/A   Clear
1:14 AM 48.2 °F - 35.6 °F 62% 29.94 in 10.0 mi ESE 8.1 mph - N/A   Clear
1:35 AM 48.2 °F - 35.6 °F 62% 29.95 in 10.0 mi ESE 5.8 mph - N/A   Clear
1:54 AM 48.2 °F - 35.6 °F 62% 29.94 in 10.0 mi ESE 5.8 mph - N/A   Clear
2:14 AM 46.4 °F 42.4 °F 35.6 °F 66% 29.94 in 10.0 mi ESE 8.1 mph - N/A   Clear
2:34 AM 46.4 °F 44.3 °F 35.6 °F 66% 29.94 in 10.0 mi ESE 4.6 mph - N/A   Clear
6:54 AM 44.6 °F 39.2 °F 35.6 °F 71% 29.95 in 10.0 mi SSE 10.4 mph - N/A   Clear
7:15 AM 44.6 °F 39.7 °F 35.6 °F 71% 29.95 in 10.0 mi SE 9.2 mph - N/A   Clear
7:35 AM 44.6 °F 39.2 °F 35.6 °F 71% 29.95 in 10.0 mi SE 10.4 mph - N/A   Clear
7:54 AM 44.6 °F 38.4 °F 35.6 °F 71% 29.94 in 10.0 mi SE 12.7 mph - N/A   Clear
8:15 AM 44.6 °F 39.2 °F 35.6 °F 71% 29.92 in 10.0 mi SE 10.4 mph - N/A   Clear
9:15 AM 46.4 °F 41.5 °F 35.6 °F 66% 29.90 in 10.0 mi SE 10.4 mph - N/A   Clear
9:35 AM 48.2 °F - 35.6 °F 62% 29.88 in 10.0 mi SE 11.5 mph - N/A   Clear
9:54 AM 48.2 °F - 35.6 °F 62% 29.91 in 10.0 mi SSE 9.2 mph - N/A   Clear
10:15 AM 48.2 °F - 35.6 °F 62% 29.92 in 10.0 mi SSE 9.2 mph - N/A   Clear
10:35 AM 48.2 °F - 37.4 °F 66% 29.93 in 10.0 mi SE 9.2 mph - N/A   Clear
10:54 AM 50.0 °F - 35.6 °F 58% 29.92 in 10.0 mi SE 9.2 mph - N/A   Clear
11:15 AM 50.0 °F - 35.6 °F 58% 29.91 in 10.0 mi SE 9.2 mph - N/A   Clear
11:35 AM 51.8 °F - 35.6 °F 54% 29.90 in 10.0 mi SE 12.7 mph - N/A   Clear
11:54 AM 51.8 °F - 35.6 °F 54% 29.90 in 10.0 mi SE 10.4 mph - N/A   Clear
12:15 PM 53.6 °F - 35.6 °F 51% 29.88 in 10.0 mi SE 12.7 mph 20.7 mph N/A   Clear
12:35 PM 53.6 °F - 35.6 °F 51% 29.88 in 10.0 mi SE 13.8 mph - N/A   Clear
12:54 PM 55.4 °F - 33.8 °F 44% 29.87 in 10.0 mi SE 17.3 mph 23.0 mph N/A   Clear
1:15 PM 57.2 °F - 32.0 °F 38% 29.86 in 10.0 mi SE 19.6 mph 24.2 mph N/A   Clear
1:35 PM 55.4 °F - 32.0 °F 41% 29.85 in 10.0 mi SE 18.4 mph 21.9 mph N/A   Scattered Clouds
1:54 PM 57.2 °F - 32.0 °F 38% 29.84 in 10.0 mi SE 16.1 mph - N/A   Scattered Clouds
2:15 PM 59.0 °F - 32.0 °F 36% 29.83 in 10.0 mi SE 16.1 mph 25.3 mph N/A   Clear
2:35 PM 59.0 °F - 33.8 °F 39% 29.82 in 10.0 mi SE 19.6 mph 24.2 mph N/A   Clear
2:54 PM 60.8 °F - 33.8 °F 36% 29.83 in 10.0 mi SE 18.4 mph 23.0 mph N/A   Clear
3:15 PM 59.0 °F - 33.8 °F 39% 29.82 in 10.0 mi SE 16.1 mph 23.0 mph N/A   Scattered Clouds
3:35 PM 59.0 °F - 33.8 °F 39% 29.82 in 10.0 mi SE 15.0 mph 18.4 mph N/A   Scattered Clouds
3:54 PM 59.0 °F - 33.8 °F 39% 29.82 in 10.0 mi SE 15.0 mph 18.4 mph N/A   Scattered Clouds
4:15 PM 59.0 °F - 33.8 °F 39% 29.82 in 10.0 mi SE 13.8 mph 21.9 mph N/A   Mostly Cloudy
4:35 PM 59.0 °F - 33.8 °F 39% 29.82 in 10.0 mi SE 12.7 mph - N/A   Scattered Clouds
4:54 PM 60.8 °F - 33.8 °F 36% 29.82 in 10.0 mi ESE 11.5 mph 18.4 mph N/A   Scattered Clouds
5:15 PM 60.8 °F - 33.8 °F 36% 29.82 in 10.0 mi ESE 11.5 mph 18.4 mph N/A   Scattered Clouds
5:35 PM 60.8 °F - 33.8 °F 36% 29.81 in 10.0 mi SE 11.5 mph - N/A   Scattered Clouds
5:54 PM 60.8 °F - 33.8 °F 36% 29.80 in 10.0 mi SE 13.8 mph 19.6 mph N/A   Clear
6:15 PM 59.0 °F - 33.8 °F 39% 29.80 in 10.0 mi SE 12.7 mph 20.7 mph N/A   Clear
6:35 PM 59.0 °F - 33.8 °F 39% 29.81 in 10.0 mi SE 10.4 mph 17.3 mph N/A   Clear
6:54 PM 59.0 °F - 33.8 °F 39% 29.81 in 10.0 mi SE 6.9 mph - N/A   Clear
7:15 PM 59.0 °F - 33.8 °F 39% 29.81 in 10.0 mi ESE 8.1 mph - N/A   Clear
7:35 PM 59.0 °F - 33.8 °F 39% 29.80 in 10.0 mi ESE 9.2 mph - N/A   Clear
7:54 PM 59.0 °F - 35.6 °F 42% 29.81 in 10.0 mi ESE 5.8 mph - N/A   Clear
8:15 PM 59.0 °F - 35.6 °F 42% 29.81 in 10.0 mi ESE 8.1 mph - N/A   Clear
8:35 PM 57.2 °F - 35.6 °F 44% 29.81 in 10.0 mi ESE 9.2 mph - N/A   Scattered Clouds
8:54 PM 57.2 °F - 35.6 °F 44% 29.83 in 10.0 mi SE 6.9 mph - N/A   Scattered Clouds
9:15 PM 57.2 °F - 35.6 °F 44% 29.83 in 10.0 mi ESE 8.1 mph - N/A   Scattered Clouds
9:35 PM 55.4 °F - 35.6 °F 47% 29.83 in 10.0 mi SE 11.5 mph 18.4 mph N/A   Clear
9:54 PM 55.4 °F - 37.4 °F 51% 29.83 in 10.0 mi ESE 5.8 mph - N/A   Scattered Clouds
10:14 PM 55.4 °F - 37.4 °F 51% 29.83 in 10.0 mi ESE 10.4 mph 16.1 mph N/A   Scattered Clouds
10:35 PM 53.6 °F - 37.4 °F 54% 29.83 in 10.0 mi ESE 10.4 mph - N/A   Scattered Clouds
10:55 PM 53.6 °F - 37.4 °F 54% 29.83 in 10.0 mi ESE 8.1 mph 17.3 mph N/A   Scattered Clouds
11:14 PM 53.6 °F - 37.4 °F 54% 29.84 in 10.0 mi ESE 8.1 mph - N/A   Mostly Cloudy
11:35 PM 51.8 °F - 37.4 °F 58% 29.84 in 10.0 mi ESE 9.2 mph 16.1 mph N/A   Overcast
11:55 PM 51.8 °F - 37.4 °F 58% 29.85 in 10.0 mi East 8.1 mph - N/A   Overcast